Regional Weather Roundup
Issued by NWS Northern Indiana

Home | Current Version | Previous Version | Graphics & Text | Print | Product List | Glossary On
Versions: 1 2 3 4 5 6 7 8 9 10 11 12 13 14 15 16 17 18 19 20 21 22 23 24 25 26 27 28 29 30 31 32 33 34 35 36 37 38 39 40 41 42 43 44 45 46 47 48 49 50
000
ASUS43 KIWX 180600
RWRIWX

KIWX WEATHER ROUNDUP
NATIONAL WEATHER SERVICE NORTHERN INDIANA
200 AM EDT THU SEP 18 2014

NOTE: "FAIR" INDICATES FEW OR NO CLOUDS BELOW 12,000 FEET WITH NO
SIGNIFICANT WEATHER AND/OR OBSTRUCTIONS TO VISIBILITY.

* THESE STATIONS ARE NOT UNDER NWS QUALITY CONTROL. THEY ALSO MAY NOT
  REPORT WEATHER SUCH AS PRECIPITATION OR FOG.

INZ001>027-180700-
NORTHERN INDIANA

CITY           SKY/WX    TMP DP  RH WIND       PRES   REMARKS
VALPARAISO     CLEAR     49  46  90 CALM      30.05R
6HR MIN TEMP:  48; 6HR MAX TEMP:  60;

SOUTH BEND     CLEAR     46  43  89 CALM      30.05S
6HR MIN TEMP:  46; 6HR MAX TEMP:  60;

GOSHEN         CLEAR     45  42  89 CALM      30.05R
6HR MIN TEMP:  45; 6HR MAX TEMP:  61;

ANGOLA*        CLEAR     46  46 100 CALM      30.04S
FORT WAYNE     PTCLDY    47  44  90 CALM      30.05R
6HR MIN TEMP:  47; 6HR MAX TEMP:  61;

PERU/GRISSOM   CLEAR     49  49 100 CALM      30.04S
6HR MIN TEMP:  49; 6HR MAX TEMP:  63;


$$
INZ028>050-180700-
CENTRAL INDIANA

CITY           SKY/WX    TMP DP  RH WIND       PRES   REMARKS
LAFAYETTE      CLOUDY    51  50  96 CALM      30.04S
6HR MIN TEMP:  50; 6HR MAX TEMP:  59;

KOKOMO*        CLOUDY    52  46  82 CALM      30.05R
6HR MIN TEMP:  48; 6HR MAX TEMP:  59;

MUNCIE*        CLOUDY    50  47  89 CALM      30.04R
6HR MIN TEMP:  48; 6HR MAX TEMP:  60;

INDIANAPOLIS   PTCLDY    54  49  83 CALM      30.03R
6HR MIN TEMP:  53; 6HR MAX TEMP:  62;


$$
MIZ043>046-050>051-056>058-064>065-071>073-077>080-180700-
SOUTHWEST LOWER MICHIGAN

CITY           SKY/WX    TMP DP  RH WIND       PRES   REMARKS
BATTLE CREEK   CLEAR     46  44  93 CALM      30.05R
6HR MIN TEMP:  46; 6HR MAX TEMP:  58;

BENTON HARBOR  CLEAR     43  42  97 CALM      30.04S
6HR MIN TEMP:  43; 6HR MAX TEMP:  54;

COLDWATER*     CLEAR     46  46  97 CALM      30.04R FOG
6HR MIN TEMP:  46; 6HR MAX TEMP:  60;

HILLSDALE*     CLEAR     44  44  98 CALM      30.04R
6HR MIN TEMP:  44; 6HR MAX TEMP:  52;

HOLLAND        CLEAR     47  44  90 CALM      30.05R
6HR MIN TEMP:  46; 6HR MAX TEMP:  56;

GRAND RAPIDS   CLEAR     48  44  86 CALM      30.05R
6HR MIN TEMP:  47; 6HR MAX TEMP:  60;

KALAMAZOO      CLEAR     45  43  93 CALM      30.05R FOG
6HR MIN TEMP:  45; 6HR MAX TEMP:  59;

STURGIS*       CLEAR     45  43  93 CALM      30.04R
THREE RIVERS*    N/A     44  42  93 CALM      30.05R FOG

$$
OHZ001>008-015>018-024>025-180700-
NORTHWEST OHIO

CITY           SKY/WX    TMP DP  RH WIND       PRES   REMARKS
DEFIANCE       CLEAR     50  45  83 CALM      30.04R
6HR MIN TEMP:  48; 6HR MAX TEMP:  59;

FINDLAY        CLEAR     49  46  90 CALM      30.02R
6HR MIN TEMP:  49; 6HR MAX TEMP:  61;

TOLEDO EXPRESS CLEAR     48  45  89 CALM      30.03R
6HR MIN TEMP:  48; 6HR MAX TEMP:  58;

TOLEDO METCALF CLEAR     54  47  77 CALM      30.03R
6HR MIN TEMP:  53; 6HR MAX TEMP:  64;

LIMA           CLEAR     50  47  89 CALM      30.02S
6HR MIN TEMP:  50; 6HR MAX TEMP:  60;


$$
&&



USA.gov is the U.S. government's official web portal to all federal, state and local government web resources and services.